User: anonymous   Login
Location: Clinton NY
(43.0598°N, 75.3602°W)
Time: 23:37:26
(UTC-04:00)
Language:

Cosmos-2242 - Orbit

View from above orbital plane
View from above orbital plane
View from above satellite
View from above satellite

Ground track
Ground track

The orbit data is extracted from the following two-line orbital elements,

1 22626U 93024A   17117.48685485 +.00000334 +00000-0 +34004-4 0  9996
2 22626 082.5207 089.6159 0017560 291.2661 068.6681 14.87645476298318
Epoch (UTC): 27 April 2017 11:41:04
Eccentricity: 0.0017560
inclination: 82.5207°
perigee height: 593 km
apogee height: 617 km
right ascension of ascending node: 89.6159°
argument of perigee: 291.2661°
revolutions per day: 14.87645476
mean anomaly at epoch: 68.6681°
orbit number at epoch: 29831

The dashed part of the orbit path shows where the satellite is in the earth's shadow,  

DLR